Content
SEND FEEDBACK

Daily
Averages
Monthly
Summary
United States of America

INARAJAN, GUAM


Home > North America > United States > Guam
Elevation: 85 meters     Latitude: 13 18N     Longitude: 144 44E

WEATHER
 
SELECT A DAY
Number of Records: 356,513;   Date Range: 1/1/95 - 12/18/14
 
SHARE

PRINT THIS DATA

[ ← Previous Day ]
WEATHER ALMANAC - 3 FEBRUARY, 2014
[ Next Day → ]
[ °F ]   °C
Weather ElementAverageHighLow
Temperature25.7 °C28.2 °C (11:58 am)23 °C (5:18 am)
Dewpoint23.5 °C25 °C (3:03 am) (7:00 pm)
Humidity90.3 %100 % (3:03 am)79 % (12:13 pm)
Barometer1009.5 hPa1010.5 hPa (12:13 am)1007.5 hPa (2:58 pm)
Wind Speed21.1 km/h27.8 km/h (3:39 am)
Wind Gust37 km/h (3:39 am)
Weather ElementAverage
Visibility15.4 km
Wind DirectionENE (56.3 °)

Weather ElementTotal
Precipitation4.83 mm
Cooling Degree Days7.3 (Base 18.3)
Growing Degree Days15.6 (Base 10)
Averaged from 98 records on 3 February, 2014
WEATHER CONDITIONS BREAKOUT
WIND DIRECTION BREAKOUT
WEATHER BY HOUR - 3 FEBRUARY, 2014
[ °F ]   °C
Local TimeTemperatureDewpointHumidityBarometerVisibilityWind DirectionWind SpeedGust SpeedPrecipitationEventsConditions
12:13 AM26 °C23 °C83 %1010.5 hPa16.1 kmNE (50°)22.2 km/hMostly Cloudy
12:18 AM25 °C23 °C89 %1010.5 hPa16.1 kmENE (60°)25.9 km/hScattered Clouds
12:33 AM25 °C24 °C94 %1010.2 hPa16.1 kmENE (60°)20.4 km/hMostly Cloudy
12:43 AM25 °C24 °C94 %1010.2 hPa16.1 kmENE (60°)22.2 km/hMostly Cloudy
12:58 AM25.3 °C23.6 °C90 %1009.5 hPa16.1 kmENE (60°)18.5 km/hScattered Clouds
1:02 AM25 °C24 °C94 %1010.2 hPa16.1 kmNE (50°)20.4 km/hRainLight Rain
1:07 AM25 °C24 °C94 %1010.2 hPa16.1 kmENE (60°)20.4 km/hRainLight Rain
1:11 AM25 °C24 °C94 %1010.2 hPa16.1 kmENE (60°)22.2 km/hScattered Clouds
1:58 AM25.2 °C23.6 °C91 %1008.5 hPa16.1 kmENE (60°)25.9 km/h0 mmScattered Clouds
2:48 AM25 °C24 °C94 %1009.1 hPa16.1 kmENE (60°)25.9 km/hMostly Cloudy
2:53 AM25 °C24 °C94 %1009.1 hPa16.1 kmENE (60°)20.4 km/hMostly Cloudy
2:58 AM25 °C24 °C94 %1008.1 hPa16.1 kmENE (70°)22.2 km/h31.5 km/hScattered Clouds
3:03 AM25 °C25 °C100 %1009.1 hPa16.1 kmENE (70°)16.7 km/h31.5 km/hMostly Cloudy
3:13 AM25 °C24 °C94 %1009.1 hPa16.1 kmENE (60°)16.7 km/hMostly Cloudy
3:18 AM25 °C24 °C94 %1009.1 hPa16.1 kmNE (50°)25.9 km/h33.3 km/hMostly Cloudy
3:23 AM25 °C24 °C94 %1009.1 hPa16.1 kmNE (50°)25.9 km/h33.3 km/hRainLight Rain
3:28 AM25 °C24 °C94 %1009.1 hPa16.1 kmENE (60°)22.2 km/hRainLight Rain
3:34 AM25 °C24 °C94 %1009.1 hPa16.1 kmENE (60°)25.9 km/h35.2 km/hScattered Clouds
3:39 AM25 °C24 °C94 %1009.1 hPa16.1 kmENE (60°)27.8 km/h37 km/hMostly Cloudy
3:44 AM25 °C24 °C94 %1008.8 hPa16.1 kmENE (60°)25.9 km/hScattered Clouds
3:58 AM24.7 °C24.5 °C99 %1007.8 hPa16.1 kmENE (70°)22.2 km/h0 mmScattered Clouds
4:03 AM25 °C25 °C100 %1008.8 hPa16.1 kmENE (60°)25.9 km/hMostly Cloudy
4:08 AM24 °C24 °C100 %1008.8 hPa16.1 kmENE (60°)22.2 km/hScattered Clouds
4:58 AM24.4 °C24 °C98 %1008.1 hPa16.1 kmNE (50°)22.2 km/hScattered Clouds
5:08 AM24 °C24 °C100 %1009.1 hPa16.1 kmENE (70°)24.1 km/h37 km/hRainLight Rain
5:18 AM23 °C23 °C100 %1009.5 hPa14.5 kmENE (60°)18.5 km/h37 km/hMostly Cloudy
5:22 AM23 °C23 °C100 %1009.5 hPa12.9 kmENE (70°)22.2 km/hLight Drizzle
5:30 AM23 °C22 °C94 %1009.5 hPa9.7 kmENE (60°)20.4 km/hLight Drizzle
5:45 AM24 °C22 °C89 %1009.5 hPa12.9 kmNNE (30°)16.7 km/hRainHeavy Rain
5:55 AM24 °C22 °C89 %1009.5 hPa8 kmNorth (10°)18.5 km/hRainHeavy Rain
5:58 AM23 °C22 °C94 %1008.5 hPa9.7 kmNNE (20°)18.5 km/h1.52 mmRainHeavy Rain
6:26 AM23 °C-17.8 °C1009.8 hPa16.1 kmNorth (10°)7.4 km/hOvercast
6:36 AM24 °C22 °C89 %1009.8 hPa16.1 kmENE (60°)13 km/hMostly Cloudy
6:41 AM24 °C22 °C89 %1009.8 hPa16.1 kmENE (60°)18.5 km/h27.8 km/hMostly Cloudy
6:51 AM24 °C22 °C89 %1010.2 hPa16.1 kmENE (60°)20.4 km/hMostly Cloudy
6:58 AM24.3 °C23 °C92 %1009.5 hPa16.1 kmENE (60°)20.4 km/h0.51 mmMostly Cloudy
7:58 AM25.6 °C23.8 °C90 %1009.5 hPa16.1 kmENE (70°)20.4 km/hPartly Cloudy
8:58 AM26 °C23.3 °C85 %1009.5 hPa16.1 kmEast (80°)22.2 km/hPartly Cloudy
9:58 AM27.4 °C24.2 °C83 %1009.5 hPa16.1 kmEast (90°)24.1 km/hClear
10:58 AM27.9 °C24.1 °C80 %1009.8 hPa16.1 kmEast (80°)18.5 km/hClear
11:58 AM28.2 °C24.4 °C80 %1009.5 hPa16.1 kmEast (80°)24.1 km/hScattered Clouds
12:13 PM28 °C24 °C79 %1010.5 hPa16.1 kmENE (60°)24.1 km/hMostly Cloudy
12:23 PM28 °C24 °C79 %1010.5 hPa16.1 kmENE (60°)24.1 km/hMostly Cloudy
12:33 PM28 °C24 °C79 %1010.5 hPa16.1 kmENE (60°)25.9 km/hMostly Cloudy
12:38 PM28 °C24 °C79 %1010.2 hPa16.1 kmENE (70°)24.1 km/hScattered Clouds
12:58 PM27.8 °C24.4 °C82 %1009.5 hPa16.1 kmENE (70°)20.4 km/hMostly Cloudy
1:03 PM28 °C24 °C79 %1009.8 hPa16.1 kmENE (70°)18.5 km/hScattered Clouds
1:58 PM27.8 °C23.8 °C79 %1008.1 hPa16.1 kmNE (40°)22.2 km/hPartly Cloudy
2:58 PM27.4 °C23.6 °C80 %1007.5 hPa16.1 kmNE (50°)20.4 km/hScattered Clouds
3:58 PM27.4 °C23.8 °C81 %1007.5 hPa16.1 kmENE (60°)13 km/hPartly Cloudy
4:13 PM27 °C24 °C84 %1008.5 hPa16.1 kmNE (40°)18.5 km/hMostly Cloudy
4:28 PM27 °C24 °C84 %1008.8 hPa16.1 kmNE (40°)20.4 km/hMostly Cloudy
4:58 PM27.3 °C23.7 °C81 %1007.8 hPa16.1 kmNE (40°)22.2 km/hMostly Cloudy
5:33 PM27 °C24 °C84 %1009.1 hPa16.1 kmNE (40°)18.5 km/hMostly Cloudy
5:35 PM27 °C24 °C84 %1009.1 hPa16.1 kmNE (50°)20.4 km/hLight Drizzle
5:40 PM26 °C24 °C89 %1009.1 hPa16.1 kmNE (50°)14.8 km/hLight Drizzle
5:45 PM26 °C24 °C89 %1008.8 hPa16.1 kmNE (50°)18.5 km/hMostly Cloudy
5:58 PM26.5 °C23.9 °C86 %1008.1 hPa16.1 kmNE (50°)20.4 km/h0 mmOvercast
6:33 PM26 °C24 °C89 %1009.5 hPa16.1 kmNE (50°)20.4 km/hOvercast
6:38 PM26 °C24 °C89 %1009.5 hPa16.1 kmNE (50°)20.4 km/hOvercast
6:43 PM26 °C24 °C89 %1009.5 hPa16.1 kmNE (50°)20.4 km/hOvercast
6:46 PM26 °C24 °C89 %1009.5 hPa16.1 kmNE (50°)20.4 km/hLight Drizzle
6:51 PM26 °C24 °C89 %1009.5 hPa16.1 kmNE (50°)18.5 km/hLight Drizzle
6:54 PM26 °C24 °C89 %1009.5 hPa16.1 kmNE (50°)20.4 km/hMostly Cloudy
6:58 PM25.9 °C24.2 °C90 %1008.5 hPa16.1 kmNE (50°)18.5 km/h0 mmMostly Cloudy
7:08 PM26 °C24 °C89 %1009.5 hPa16.1 kmNE (50°)20.4 km/hMostly Cloudy
7:18 PM26 °C24 °C89 %1009.5 hPa16.1 kmNE (50°)24.1 km/hMostly Cloudy
7:23 PM26 °C24 °C89 %1009.8 hPa16.1 kmENE (60°)22.2 km/hMostly Cloudy
7:33 PM26 °C24 °C89 %1009.8 hPa16.1 kmNE (50°)18.5 km/hScattered Clouds
7:43 PM26 °C24 °C89 %1009.8 hPa16.1 kmNE (50°)22.2 km/hMostly Cloudy
7:48 PM26 °C24 °C89 %1009.8 hPa16.1 kmNE (50°)22.2 km/hMostly Cloudy
7:53 PM26 °C24 °C89 %1009.8 hPa16.1 kmNE (50°)24.1 km/hMostly Cloudy
7:58 PM26 °C24.3 °C90 %1008.8 hPa16.1 kmENE (60°)22.2 km/hMostly Cloudy
8:03 PM26 °C24 °C89 %1009.8 hPa16.1 kmENE (60°)20.4 km/hMostly Cloudy
8:08 PM26 °C24 °C89 %1010.2 hPa16.1 kmNE (50°)20.4 km/hMostly Cloudy
8:48 PM26 °C24 °C89 %1010.2 hPa16.1 kmENE (60°)20.4 km/hMostly Cloudy
8:58 PM26 °C24 °C89 %1009.5 hPa16.1 kmNE (50°)20.4 km/hScattered Clouds
9:03 PM26 °C24 °C89 %1010.5 hPa16.1 kmNE (50°)22.2 km/hScattered Clouds
9:08 PM26 °C24 °C89 %1010.5 hPa16.1 kmENE (60°)22.2 km/hMostly Cloudy
9:18 PM26 °C24 °C89 %1010.5 hPa16.1 kmENE (60°)22.2 km/hMostly Cloudy
9:23 PM26 °C24 °C89 %1010.5 hPa16.1 kmENE (60°)25.9 km/hMostly Cloudy
9:38 PM26 °C25 °C94 %1010.5 hPa16.1 kmENE (60°)24.1 km/hMostly Cloudy
9:43 PM26 °C24 °C89 %1010.5 hPa16.1 kmENE (60°)22.2 km/hMostly Cloudy
9:48 PM26 °C24 °C89 %1010.5 hPa16.1 kmENE (60°)24.1 km/hMostly Cloudy
9:53 PM26 °C25 °C94 %1010.5 hPa16.1 kmENE (60°)24.1 km/hMostly Cloudy
9:58 PM25.8 °C24.6 °C93 %1009.5 hPa16.1 kmENE (60°)24.1 km/hMostly Cloudy
10:08 PM26 °C25 °C94 %1010.5 hPa16.1 kmENE (60°)22.2 km/hScattered Clouds
10:48 PM26 °C25 °C94 %1010.5 hPa16.1 kmENE (60°)24.1 km/hMostly Cloudy
10:58 PM25.8 °C24.8 °C94 %1009.5 hPa16.1 kmNE (50°)24.1 km/hMostly Cloudy
11:08 PM26 °C25 °C94 %1010.5 hPa16.1 kmENE (60°)16.7 km/hMostly Cloudy
11:09 PM26 °C25 °C94 %1010.5 hPa16.1 kmENE (70°)13 km/hRainLight Rain
11:14 PM26 °C25 °C94 %1010.5 hPa9.7 kmENE (60°)14.8 km/hRainLight Rain
11:19 PM25 °C25 °C100 %1010.5 hPa4 kmENE (60°)18.5 km/hRainHeavy Rain
11:24 PM25 °C25 °C100 %1010.5 hPa4 kmENE (60°)20.4 km/h31.5 km/hRainRain
11:29 PM25 °C25 °C100 %1010.5 hPa8 kmENE (60°)20.4 km/h31.5 km/hRainLight Rain
11:32 PM25 °C25 °C100 %1010.5 hPa16.1 kmENE (60°)20.4 km/hMostly Cloudy
11:52 PM25 °C24 °C94 %1010.5 hPa16.1 kmENE (60°)20.4 km/hScattered Clouds
11:58 PM25 °C24 °C94 %1009.5 hPa16.1 kmNE (50°)20.4 km/h2.79 mmMostly Cloudy
Hourly data recorded from PGUA, located 0 kilometers away from Inarajan, Guam







STORIES FROM OUR PARTNERS